Bar Harbor, ME

6:22 AM EDT on August 26, 2019 (GMT -0400)
Hancock County-Bar Harbor

Weather History for KBHB - June, 2019

Change the Weather History Date:

Monday, June 3, 2019

  Actual Average Record
Temperature  
Mean Temperature 57 °F -  
Max Temperature 64 °F 70 °F 80 °F (1970)
Min Temperature 50 °F 48 °F 39 °F (1997)
Degree Days  
Heating Degree Days 8    
Growing Degree Days 7 (Base 50)    
Moisture  
Dew Point 49 °F    
Average Humidity 86    
Maximum Humidity 100    
Minimum Humidity 44    
Precipitation  
Precipitation 0.01 in - - ()
Sea Level Pressure  
Sea Level Pressure 29.69 in    
Wind  
Wind Speed 6 mph (SSW)    
Max Wind Speed 20 mph    
Max Gust Speed 18 mph    
Visibility 5 miles    
Events Fog , Rain    
Averages and records for this station are not official NWS values.
T = Trace of Precipitation, MM = Missing Value Source: NWS Daily Summary

Daily Weather History Graph

Daily Weather History Graph

Search for Another Location

Airport or City:

Astronomy

Jun. 03, 2019 Rise Set
Actual Time 4:51 AM EDT 8:12 PM EDT
Civil Twilight 4:15 AM EDT 8:48 PM EDT
Nautical Twilight 3:28 AM EDT 9:35 PM EDT
Astronomical Twilight 2:29 AM EDT 10:34 PM EDT
Moon 5:11 AM EDT (6/3) 8:32 PM EDT (6/3)
Length of Visible Light 16h 33m
Length of Day
15h 21m
New Moon, 0% of the Moon is Illuminated
Jun 3
New Moon
Jun 10
First Quarter
Jun 17
Full
Jun 25
Last Quarter
Jul 2
New

Hourly Weather History & Observations

Time (EDT) Temp. Dew Point Humidity Pressure Visibility Wind Dir Wind Speed Gust Speed Precip Events Conditions
12:23 AM 51.8 °F 50.0 °F 94% 29.68 in 10.0 mi SSW 4.6 mph - N/A   Overcast
12:43 AM 51.8 °F 50.0 °F 94% 29.68 in 1.8 mi SSW 4.6 mph - N/A   Overcast
12:56 AM 51.1 °F 50.0 °F 96% 29.70 in 1.0 mi SSW 6.9 mph - N/A   Overcast
1:01 AM 51.8 °F 50.0 °F 94% 29.68 in 0.8 mi SSW 8.1 mph - N/A   Overcast
1:17 AM 50.0 °F 50.0 °F 100% 29.68 in 0.5 mi SSW 6.9 mph - N/A Fog Fog
1:36 AM 50.0 °F 50.0 °F 100% 29.68 in 0.8 mi SSW 9.2 mph - 0.00 in Rain Light Rain
1:56 AM 50.0 °F 50.0 °F 100% 29.69 in 0.8 mi SW 5.8 mph - 0.00 in Rain Light Rain
2:19 AM 50.0 °F 50.0 °F 100% 29.67 in 0.5 mi South 4.6 mph - 0.00 in Fog , Rain Light Rain
2:34 AM 50.0 °F 50.0 °F 100% 29.66 in 0.8 mi SSW 3.5 mph - 0.00 in   Overcast
2:56 AM 51.1 °F 50.0 °F 96% 29.67 in 0.8 mi Calm Calm - 0.00 in   Overcast
3:42 AM 51.8 °F 50.0 °F 94% 29.65 in 0.2 mi East 4.6 mph - N/A Fog Fog
3:54 AM 51.8 °F 50.0 °F 94% 29.66 in 0.5 mi Calm Calm - 0.00 in Fog , Rain Light Rain
3:56 AM 51.1 °F 50.0 °F 96% 29.67 in 0.5 mi Variable 3.5 mph - 0.00 in Fog , Rain Light Rain
4:07 AM 51.8 °F 51.8 °F 100% 29.66 in 1.0 mi SSW 9.2 mph - 0.01 in Rain Light Rain
4:14 AM 51.8 °F 51.8 °F 100% 29.66 in 0.5 mi South 6.9 mph - 0.01 in Fog Fog
4:45 AM 51.8 °F 51.8 °F 100% 29.65 in 1.0 mi South 5.8 mph - 0.01 in   Overcast
4:48 AM 51.8 °F 51.8 °F 100% 29.65 in 2.5 mi South 5.8 mph - 0.01 in   Overcast
4:56 AM 51.1 °F 51.1 °F 100% 29.67 in 2.0 mi SSE 3.5 mph - 0.01 in   Overcast
4:59 AM 51.8 °F 51.8 °F 100% 29.66 in 1.0 mi Variable 4.6 mph - N/A   Overcast
5:08 AM 51.8 °F 51.8 °F 100% 29.65 in 2.0 mi South 3.5 mph - N/A   Overcast
5:23 AM 51.8 °F 50.0 °F 94% 29.63 in 1.0 mi ESE 6.9 mph - N/A   Overcast
5:34 AM 50.0 °F 50.0 °F 100% 29.64 in 2.5 mi SE 4.6 mph - N/A   Overcast
5:46 AM 50.0 °F 50.0 °F 100% 29.64 in 8.0 mi SE 3.5 mph - N/A   Overcast
5:56 AM 50.0 °F 50.0 °F 100% 29.66 in 10.0 mi South 5.8 mph - N/A   Overcast
6:56 AM 51.1 °F 50.0 °F 96% 29.68 in 10.0 mi SW 5.8 mph - N/A   Overcast
7:40 AM 51.8 °F 50.0 °F 94% 29.68 in 1.5 mi WSW 5.8 mph - N/A   Overcast
7:44 AM 51.8 °F 50.0 °F 94% 29.68 in 0.8 mi WSW 5.8 mph - N/A   Overcast
7:48 AM 51.8 °F 50.0 °F 94% 29.68 in 0.2 mi SW 5.8 mph - N/A Fog Fog
7:56 AM 51.1 °F 50.0 °F 96% 29.70 in 0.5 mi Variable 4.6 mph - N/A Fog Fog
8:00 AM 51.8 °F 51.8 °F 100% 29.69 in 1.0 mi SSW 4.6 mph - N/A   Overcast
8:03 AM 51.8 °F 51.8 °F 100% 29.69 in 2.0 mi SSW 5.8 mph - N/A   Overcast
8:16 AM 51.8 °F 51.8 °F 100% 29.69 in 4.0 mi South 5.8 mph - N/A   Overcast
8:56 AM 52.0 °F 51.1 °F 97% 29.71 in 10.0 mi SSW 5.8 mph - N/A   Overcast
9:35 AM 55.4 °F 51.8 °F 88% 29.69 in 10.0 mi WSW 4.6 mph - N/A   Overcast
9:56 AM 55.0 °F 52.0 °F 89% 29.70 in 10.0 mi WSW 5.8 mph - N/A   Overcast
10:26 AM 55.4 °F 53.6 °F 94% 29.70 in 10.0 mi Variable 3.5 mph - N/A   Overcast
10:56 AM 57.0 °F 52.0 °F 83% 29.71 in 10.0 mi Variable 3.5 mph - N/A   Overcast
11:24 AM 59.0 °F 53.6 °F 82% 29.68 in 10.0 mi SE 8.1 mph - N/A   Mostly Cloudy
11:56 AM 62.1 °F 53.1 °F 72% 29.69 in 10.0 mi SW 3.5 mph - N/A   Partly Cloudy
12:56 PM 64.0 °F 54.0 °F 70% 29.68 in 10.0 mi South 12.7 mph - N/A   Clear
1:56 PM 62.1 °F 51.1 °F 67% 29.68 in 10.0 mi South 18.4 mph - N/A   Clear
2:56 PM 62.1 °F 45.0 °F 53% 29.68 in 10.0 mi South 18.4 mph - N/A   Clear
3:56 PM 62.1 °F 46.9 °F 58% 29.68 in 10.0 mi SSW 12.7 mph - N/A   Clear
4:56 PM 63.0 °F 42.1 °F 46% 29.68 in 10.0 mi SSW 19.6 mph - N/A   Clear
5:56 PM 62.1 °F 39.9 °F 44% 29.72 in 10.0 mi WSW 9.2 mph - N/A   Mostly Cloudy
6:56 PM 59.0 °F 43.0 °F 55% 29.73 in 10.0 mi SSW 8.1 mph - N/A   Partly Cloudy
7:56 PM 57.0 °F 45.0 °F 64% 29.75 in 10.0 mi SW 3.5 mph - N/A   Mostly Cloudy
8:56 PM 57.9 °F 37.0 °F 46% 29.81 in 10.0 mi West 8.1 mph - N/A   Clear
9:56 PM 55.9 °F 37.9 °F 51% 29.84 in 10.0 mi NW 10.4 mph 18.4 mph N/A   Clear
10:56 PM 52.0 °F 37.0 °F 57% 29.86 in 10.0 mi WNW 8.1 mph - N/A   Clear
11:56 PM 50.0 °F 37.0 °F 61% 29.88 in 10.0 mi Variable 6.9 mph - N/A   Clear